Location: Unspecified
(42.3650°N, 71.1030°W)
Time: 09:40:40
(UTC+00:00)

Tiros 1 - Pass Details

Date: 26 June 2024
Orbit: 624 x 656 km, 48.4° (Epoch: 20 July)

Event Time Altitude Azimuth Distance (km) Brightness Sun altitude
Rises 08:32:28 0° 296° (WNW) 2,915 10.3 -6.3°
Reaches altitude 10° 08:34:46 10° 296° (WNW) 2,009 9.4 -6.0°
Maximum altitude 08:39:24 83° 208° (SSW) 643 7.1 -5.3°
Drops below altitude 10° 08:44:04 10° 122° (ESE) 2,022 10.0 -4.6°
Sets 08:46:24 0° 121° (ESE) 2,934 10.8 -4.3°
